map of TTT home
TTT - Airport
Location
City:  Taitung, Taiwan
Name:Fengnin
ICAO:RCFN
IATA:TTT

Details
Type:Airport (Aerodrome, Airfield)
Use:Public/Civil
Latitude:2245'18"N (22.754986)
Longitude:12106'06"E (121.101681)
Datum:WGS 1984
Elevation:143 ft (44 m)
Variation:4.00W (WMM2015 magnetic declination)
-0.09 annual change
Runways:1
Longest:8002 × 148 ft (2439 × 45 m), paved

Time
Time Zone:UTC+8
Local Time:

Weather
METAR:RCFN 171200Z 36006KT 310V060 9999 FEW025 BKN045 19/14 Q1023 NOSIG RMK A3023
TAF:RCFN 171100Z 1712/1812 35007KT 9999 SCT025 BKN050
TEMPO 1804/1810 05008KT

Related Locations
Nearby:
Farthest:VMI: 12366 mi / 19902 km
Puerto Vallemi [Dr. Juan Plate Airport], 1, PY

Find:

   beyond  
but within

Other Information
Maps:
NOTAMs:
Links:
Sources:

  
  • flag of Taiwan
  

Sectional Chart

Flight Planning
at skyvector.com

Satellite Image

Google Maps Satellite view

 

Copyright © 2004-2019 Karl L. Swartz. All rights reserved.
The Great Circle Mapper name and logo are trademarks of the Great Circle Mapper.
All other trademarks mentioned herein belong to their respective owners.
Please see credits for attibutions and further copyright information.

  Follow gcmap on Facebook Follow gcmap on Twitter Follow gcmap on Google+ GCmap on LinkedIn

hCard Microformat

Geo Microformat